Weather History for Doha, Qatar

Change the Weather History Date:

Monday, March 26, 2012

  Actual Average Record
Temperature  
Mean Temperature 66 °F -  
Max Temperature 72 °F 88 °F 98 °F (2008)
Min Temperature 60 °F 68 °F 60 °F (2012)
Cooling Degree Days 1    
Growing Degree Days 16 (Base 50)    
Moisture  
Dew Point 58 °F    
Average Humidity 73    
Maximum Humidity 88    
Minimum Humidity 33    
Precipitation  
Precipitation 0.00 in 0.01 in - ()
Sea Level Pressure  
Sea Level Pressure 29.99 in    
Wind  
Wind Speed 11 mph ()    
Max Wind Speed 20 mph    
Max Gust Speed 28 mph    
Visibility 5.8 miles    
Events Rain , Thunderstorm    
Averages and records for this station are not official NWS values.
T = Trace of Precipitation, MM = Missing Value Source: Averaged Metar Reports

Daily Weather History Graph

Daily Weather History Graph

Search for Another Location

Airport:

Trip Planner

Search our weather history database for the weather conditions in past years. The results will help you decide how hot, cold, wet, or windy it might be!

Date:

Astronomy

Mar. 26, 2012 Rise Set
Actual Time 5:31 AM AST 5:47 PM AST
Civil Twilight 5:08 AM AST 6:10 PM AST
Nautical Twilight 4:41 AM AST 6:37 PM AST
Astronomical Twilight 4:14 AM AST 7:04 PM AST
Moon 7:30 AM AST (3/26) 9:09 PM AST (3/26)
Length of Visible Light 13h 02m
Length of Day
12h 16m
Waxing Crescent, 12% of the Moon is Illuminated
Mar 26
Waxing Crescent
Mar 30
First Quarter
Apr 6
Full
Apr 13
Last Quarter
Apr 21
New

Hourly Weather History & Observations

Time (AST) Temp. Dew Point Humidity Pressure Visibility Wind Dir Wind Speed Gust Speed Precip Events Conditions
12:00 AM 71.6 °F 41.0 °F 33% 30.01 in 6.2 mi NW 11.5 mph - N/A Rain Light Rain
12:30 AM 69.8 °F 44.6 °F 40% 29.95 in 6.2 mi North 12.7 mph - N/A   Scattered Clouds
1:00 AM 69.8 °F 48.2 °F 46% 29.95 in 6.2 mi North 11.5 mph - N/A   Mostly Cloudy
1:30 AM 71.6 °F 42.8 °F 35% 29.95 in 5.6 mi NNW 15.0 mph - N/A Rain , Thunderstorm Light Thunderstorms and Rain
2:00 AM 68.0 °F 51.8 °F 56% 29.92 in 6.2 mi North 17.3 mph - N/A Rain Light Rain
2:30 AM 68.0 °F 53.6 °F 60% 29.92 in - North 19.6 mph - N/A   Clear
3:00 AM 69 °F 53 °F 46% 29.98 in 6 mi NNW 17.3 mph - -  
3:00 AM 69.8 °F 53.6 °F 56% 29.98 in - NNW 17.3 mph - N/A   Clear
3:30 AM 68.0 °F 51.8 °F 56% 30.01 in 5.6 mi NNW 13.8 mph - N/A Rain Light Rain
4:00 AM 68.0 °F 50.0 °F 52% 30.04 in 6.2 mi NW 10.4 mph - N/A   Mostly Cloudy
4:30 AM 64.4 °F 53.6 °F 68% 30.06 in 6.2 mi NW 13.8 mph 25.3 mph N/A Rain Light Rain
5:00 AM 62.6 °F 57.2 °F 82% 30.06 in 6.2 mi NW 16.1 mph 27.6 mph N/A Rain Light Rain
5:30 AM 62.6 °F 55.4 °F 77% 30.06 in 5.0 mi NNW 16.1 mph - N/A Rain Light Rain
6:00 AM 60.8 °F 57.2 °F 88% 30.04 in 4.3 mi North 17.3 mph - N/A Rain Light Rain
6:30 AM 62.6 °F 57.2 °F 82% 30.04 in 5.0 mi North 15.0 mph - N/A   Overcast
7:00 AM 62.6 °F 59.0 °F 88% 29.98 in 5.0 mi NNE 17.3 mph - N/A Rain Light Rain
7:30 AM 64.4 °F 59.0 °F 83% 30.01 in 5.0 mi NNE 13.8 mph - N/A Rain Light Rain
8:00 AM 64.4 °F 60.8 °F 88% 30.04 in 5.0 mi North 17.3 mph - N/A Rain Light Rain
8:30 AM 64.4 °F 60.8 °F 88% 30.06 in 5.0 mi NNE 10.4 mph - N/A Rain Light Rain
9:00 AM 65 °F 59 °F 76% 30.07 in 5 mi North 18.4 mph - - Rain Light Rain
9:00 AM 66.2 °F 59.0 °F 78% 30.06 in 5.0 mi North 18.4 mph - N/A Rain Light Rain
9:30 AM 66.2 °F 60.8 °F 83% 30.06 in 5.6 mi NNE 16.1 mph - N/A   Mostly Cloudy
10:00 AM 68.0 °F 60.8 °F 78% 30.04 in 5.6 mi NNE 15.0 mph - N/A   Scattered Clouds
10:30 AM 66.2 °F 60.8 °F 83% 30.04 in 5.0 mi NNE 13.8 mph - N/A   Scattered Clouds
11:00 AM 69.8 °F 60.8 °F 73% 30.01 in 6.2 mi NE 15.0 mph - N/A   Scattered Clouds
11:30 AM 69.8 °F 60.8 °F 73% 30.01 in 6.2 mi NE 13.8 mph - N/A   Mostly Cloudy
12:00 PM 68.0 °F 60.8 °F 78% 30.01 in 5.6 mi NNE 11.5 mph - N/A   Mostly Cloudy
12:30 PM 69.8 °F 60.8 °F 73% 29.98 in 5.6 mi NE 10.4 mph - N/A   Mostly Cloudy
1:00 PM 68.0 °F 62.6 °F 83% 29.95 in 5.6 mi East 12.7 mph - N/A Rain Light Rain
1:30 PM 69.8 °F 62.6 °F 78% 29.98 in 5.6 mi ESE 8.1 mph - N/A   Scattered Clouds
2:00 PM 69.8 °F 62.6 °F 78% 29.98 in - ENE 6.9 mph - N/A   Clear
2:30 PM 71.6 °F 60.8 °F 69% 29.95 in - NNE 9.2 mph - N/A   Clear
3:00 PM 72 °F 61 °F 60% 29.96 in 6 mi NNE 5.8 mph - -  
3:00 PM 71.6 °F 60.8 °F 69% 29.95 in - NNE 5.8 mph - N/A   Clear
3:30 PM 69.8 °F 62.6 °F 78% 29.98 in 6.2 mi North 9.2 mph - N/A   Scattered Clouds
4:00 PM 69.8 °F 62.6 °F 78% 29.98 in 6.2 mi North 5.8 mph - N/A   Scattered Clouds
4:30 PM 69.8 °F 60.8 °F 73% 29.98 in - NE 3.5 mph - N/A   Clear
5:00 PM 69.8 °F 62.6 °F 78% 29.98 in - NE 8.1 mph - N/A   Clear
5:30 PM 68.0 °F 60.8 °F 78% 29.98 in - NE 6.9 mph - N/A   Clear
6:00 PM 68.0 °F 62.6 °F 83% 29.98 in - NE 5.8 mph - N/A   Clear
6:30 PM 68.0 °F 62.6 °F 83% 29.98 in 6.2 mi NE 6.9 mph - N/A   Partly Cloudy
7:00 PM 68.0 °F 62.6 °F 83% 29.98 in 6.2 mi NNE 8.1 mph - N/A   Partly Cloudy
7:30 PM 68.0 °F 62.6 °F 83% 29.98 in 6.2 mi NNE 9.2 mph - N/A   Partly Cloudy
8:00 PM 68.0 °F 60.8 °F 78% 29.98 in 6.2 mi NE 5.8 mph - N/A   Partly Cloudy
8:30 PM 68.0 °F 60.8 °F 78% 29.98 in - NE 5.8 mph - N/A   Clear
9:00 PM 67 °F 62 °F 77% 29.99 in 7 mi NE 4.6 mph - -   Scattered Clouds
9:00 PM 68.0 °F 60.8 °F 78% 29.98 in 6.2 mi NE 4.6 mph - N/A   Partly Cloudy
9:30 PM 68.0 °F 62.6 °F 83% 29.98 in 6.2 mi Variable 2.3 mph - N/A   Partly Cloudy
10:00 PM 68.0 °F 60.8 °F 78% 29.98 in 6.2 mi Variable 2.3 mph - N/A   Partly Cloudy
10:30 PM 66.2 °F 62.6 °F 88% 29.98 in 6.2 mi NNE 3.5 mph - N/A   Partly Cloudy
11:00 PM 66.2 °F 62.6 °F 88% 29.98 in - NNE 4.6 mph - N/A   Clear
11:30 PM 66.2 °F 62.6 °F 88% 29.95 in - NNE 4.6 mph - N/A   Clear